DELTA 1 DEB, 42576

Orbit data source: Space-Track

DELTA 1 DEB, 42576 is space debris in SSO originally from a launch on Tue, 06 Nov 1973 UTC launched from the Air Force Western Test Range (AFWTR). Debris objects in space refer to the collection of defunct objects orbiting the Earth. Examples of debris include non-operational satellites, rocket bodies, and fragments generated from explosions, collisions, or faulty payload assembly.

Loading next visibility...
Identifier
42576, 1973-086HQ
Orbit
SSO
Country
Flag of USUS
Related business
Manufacturer
Unknown
Mission
Spacecraft
Bus & Motor
Unknown
Mass
Unknown
Launch date (UTC)
1973-11-06 (52 years ago)
Launch vehicle
Unknown
Launch site
Air Force Western Test Range (AFWTR)
Object type
Payload
Rocket body
Debris
Shape & HBR
Unknown
Radar Cross Section
Small (<0.1 m²)

Expand to show TLE details & history
Last TLE update: 1 week ago

TLE from 1 week ago
0 DELTA 1 DEB
1 42576U 73086HQ  25252.82427382  .00000052  00000-0  39160-3 0  9999
2 42576 102.2400 105.8674 0300376 146.4811 283.5355 12.76421422549707
Epoch: 2025-09-09T19:46Z
TLE epoch observation values (Epoch: 2025-09-09T19:46:57.258Z)
Latitude
63.8788°
Longitude
153.90265°
Altitude
1,318.981 km
Speed
7.226 km/s
True Right ascension
05h 19m 00s
True Declination
63° 45' 09"
Sunlit
Object was in daylight at epoch
Visualization orbit readout
Latitude
Unknown
Longitude
Unknown
Altitude
Unknown
Speed
Unknown
Apparent Right ascension
Unknown
Apparent Declination
Unknown
Sunlit
N/A
Visualization observer readout
Local Sidereal Time
16:07:18
Azimuth
Unknown
Elevation
Unknown
Doppler factor
Unknown
Orbital elements
Apogee altitude
1,585.668 km
Perigee altitude
1,121.193 km
Semi-major axis
7,731.567 km
Eccentricity
0.03004
Inclination
102.24°
RAAN
105.8674°
Arg. of periapsis
146.4811°
True anomaly
280.16134°
Mean anomaly
283.5355°
Eccentric anomaly
281.85116°
Mean motion
3.19258 °/min
Orbital period
112.76 mins
BSTAR
0.0003916
Loading maneuver chart data...
Computing Atmospheric mass density...
Loading historical data...
Loading historical data...
Loading historical data...
Loading historical data...
Loading historical data...
Loading historical data...
Loading historical data...

Documentation

Showing up to 5 results
|